Location: Astronomy Adventures Observing Site
(35.3995°N, 106.1279°W)
Time: 19:07:27
(UTC-06:00)

Envisat - Pass Details

Date: 22 January 2022
Orbit: 764 x 765 km, 98.2° (Epoch: 27 May)

Event Time Altitude Azimuth Distance (km) Brightness Sun altitude
Rises 06:31:29 0° 346° (NNW) 3,234 5.9 -8.2°
Reaches altitude 10° 06:36:17 10° 305° (NW) 2,302 4.9 -7.3°
Maximum altitude 06:36:53 10° 298° (WNW) 2,287 4.8 -7.2°
Drops below altitude 10° 06:37:30 10° 291° (WNW) 2,300 4.8 -7.1°
Sets 06:42:17 0° 250° (WSW) 3,220 5.8 -6.1°
